sat.trackr.live / text

‹ back to catalog

STARLINK-37285

NORAD 68626 · 2026-073AA

PAYLOAD ACTIVE UNKNOWN

§ Identity

Operator
Country
US
Launch date
2026-04-07
Launch site
AFWTR
Launch vehicle
Mass (kg)
RCS (m²)

Purposes: comms

External: N2YO · Heavens-Above · Gunter

§ Orbital elements

Epoch: 2026-05-25T02:10:54.478848Z

Period
91.42 min
Inclination
97.2852°
Eccentricity
0.0001480
Mean motion
15.75187692 rev/d
Perigee alt
343.1 km
Apogee alt
345.1 km
Semi-major
6,722.2 km
B*
1.3337e-3
RAAN
344.6285°
Arg perigee
81.5547°
Mean anomaly
278.5886°
Rev number
758

§ Raw data

STARLINK-372851 68626U 26073AA  26145.09090832  .00203588  00000+0  13337-2 0  99992 68626  97.2852 344.6285 0001480  81.5547 278.5886 15.75187692  7583

JSON: /api/v1/satellites/68626 · /tle

For live sub-satellite position, see the globe view (requires WebGL).

§ Visibility from observer

Set your observer location to see the next 7 days of passes ≥ 10°. The values pass through the URL so the page stays shareable.

No JS? Fill the form by hand. The geolocation button needs JavaScript.